This demonstration page uses our WeatherBlox Daily Observations layout. Learn more.

Left ArrowRight Arrow

36.17497, -115.13722

Hourly Observations for October 31, 2021

Temp ( °F °C ) Dew Point ( °F °C ) Humidity (%) Winds ( mph kmh ) Pressure ( in mb ) Visibility ( mi km ) Precip ( " mm )
12:53 am 00:53 Clear 66 18.9 38 3.3 36 36 N 3 6 29.84 1011 10 16 N/A
1:53 am 01:53 Clear 65 18.3 39 3.9 39 39 NW 3 6 29.85 1011 10 16 N/A
2:53 am 02:53 Clear 64 17.8 39 3.9 40 40 N 3 6 29.84 1010 10 16 N/A
3:53 am 03:53 Clear 67 19.4 37 2.8 33 33 ENE 7 11 29.83 1010 10 16 N/A
4:53 am 04:53 Clear 67 19.4 37 2.8 33 33 NNE 3 6 29.84 1011 10 16 N/A
5:53 am 05:53 Clear 64 17.8 38 3.3 38 38 N N/A 29.85 1011 10 16 N/A
6:53 am 06:53 Clear 63 17.2 37 2.8 38 38 N N/A 29.87 1011 10 16 N/A
7:53 am 07:53 Sunny 63 17.2 37 2.8 38 38 N N/A 29.89 1012 10 16 N/A
8:53 am 08:53 Sunny 69 20.6 39 3.9 33 33 E 3 6 29.91 1013 10 16 N/A
9:53 am 09:53 Sunny 72 22.2 38 3.3 29 29 ESE 5 7 29.91 1013 10 16 N/A
10:53 am 10:53 Sunny 76 24.4 38 3.3 25 25 SE 12 19 29.90 1013 10 16 N/A
11:53 am 11:53 Sunny 79 26.1 37 2.8 22 22 E 12 19 29.88 1012 10 16 N/A
12:53 pm 12:53 Sunny 81 27.2 34 1.1 18 18 SE 16 26 29.85 1011 10 16 N/A
1:53 pm 13:53 Sunny 82 27.8 30 -1.1 15 15 SSE 15 24 29.83 1010 10 16 N/A
2:53 pm 14:53 Sunny 82 27.8 28 -2.2 14 14 SSW 16 26 29.83 1010 10 16 N/A
3:53 pm 15:53 Sunny 81 27.2 28 -2.2 14 14 S 16 26 29.83 1010 10 16 N/A
4:53 pm 16:53 Sunny 80 26.7 30 -1.1 16 16 S 12 19 29.83 1010 10 16 N/A
5:53 pm 17:53 Clear 78 25.6 33 0.6 19 19 SSW 14 22 29.83 1010 10 16 N/A
6:53 pm 18:53 Clear 75 23.9 35 1.7 23 23 SSE 8 13 29.86 1011 10 16 N/A
7:53 pm 19:53 Clear 73 22.8 34 1.1 24 24 SSE 13 20 29.87 1011 10 16 N/A
8:53 pm 20:53 Clear 73 22.8 34 1.1 24 24 S 9 15 29.88 1012 10 16 N/A
9:53 pm 21:53 Clear 71 21.7 34 1.1 26 26 S 8 13 29.89 1012 10 16 N/A
10:53 pm 22:53 Clear 69 20.6 35 1.7 29 29 W 5 7 29.91 1013 10 16 N/A
11:53 pm 23:53 Clear 68 20 33 0.6 27 27 N N/A 29.91 1013 10 16 N/A

Powered by AerisWeather